Regional Weather Roundup
Issued by NWS San Angelo, TX

Home | Current Version | Previous Version | Text Only | Print | Product List | Glossary On
Versions: 1 2 3 4 5 6 7 8 9 10 11 12 13 14 15 16 17 18 19 20 21 22 23 24 25 26 27 28 29 30 31 32 33 34 35 36 37 38 39 40 41 42 43 44 45 46 47 48 49 50
000
ASUS44 KSJT 222210
RWRSJT
WEST CENTRAL TEXAS REGIONAL WEATHER ROUNDUP
NATIONAL WEATHER SERVICE SAN ANGELO TX
500 PM CDT MON SEP 22 2014

NOTE: "FAIR" INDICATES FEW OR NO CLOUDS BELOW 12,000 FEET WITH NO
SIGNIFICANT WEATHER AND/OR OBSTRUCTIONS TO VISIBILITY.

TXZ049-054-064>066-071>073-076>078-098-099-113-114-127-128-139-140-
154-155-168>170-222300
...LOCATIONS ACROSS WEST CENTRAL TEXAS...

CITY           SKY/WX    TMP DP  RH WIND       PRES   REMARKS
SAN ANGELO     PTSUNNY   88  64  44 NE12      30.12F
ABILENE        PTSUNNY   87  61  41 NE10      30.14F
DYESS AFB      MOSUNNY   87  56  35 E8        30.13F
JUNCTION       MOSUNNY   88  57  34 SE6       30.10F
SWEETWATER     CLOUDY    77  67  70 N5        30.20F
BROWNWOOD      NOT AVBL
COLEMAN        NOT AVBL
SONORA         MOSUNNY   86  55  35 VRB7      30.16F
OZONA          FAIR      88  48  25 S14       30.15F
BRADY          SUNNY     86  63  45 NE7       30.12F
$$

TEXAS PANHANDLE/OKLAHOMA PANHANDLE

CITY           SKY/WX    TMP DP  RH WIND       PRES   REMARKS
AMARILLO       SUNNY     75  57  53 S14       30.23F
BORGER         SUNNY     80  52  37 S13G21    30.20F
CANADIAN       SUNNY     79  51  37 S10G17    30.19S
DALHART        PTSUNNY   77  57  50 S20G26    30.22F
DUMAS          CLEAR     78  57  47 S15G21    30.22S
GUYMON         NOT AVBL
HEREFORD       PTCLDY    76  63  63 SE15G21   30.24S
PAMPA          CLEAR     78  49  36 S13       30.23S
PERRYTON       SUNNY     80  47  32 S17       30.19F
$$

SOUTHERN PANHANDLE/SOUTH PLAINS/ROLLING PLAINS

CITY           SKY/WX    TMP DP  RH WIND       PRES   REMARKS
LUBBOCK        PTSUNNY   75  62  64 SE12      30.22F
SNYDER         MOSUNNY   79  64  60 NE10      30.19S
CHILDRESS      SUNNY     81  52  36 S8        30.19F
SEMINOLE       CLOUDY    72  64  74 SW8       30.22F
$$

PERMIAN BASIN

CITY           SKY/WX    TMP DP  RH WIND       PRES   REMARKS
MIDLAND        PTSUNNY   81  59  47 SE12      30.17F
ODESSA         CLOUDY    79  57  46 SE12      30.18F
WINK           CLOUDY    81  61  50 SE14G21   30.14F
$$

FAR WEST/SOUTHWEST MOUNTAINS/TRANS PECOS

CITY           SKY/WX    TMP DP  RH WIND       PRES   REMARKS
ALPINE         CLOUDY    75  58  55 SE13      30.28S
DRYDEN           N/A     87  53  31 SE13      30.10F
EL PASO        CLOUDY    70  64  81 E9        30.15F
FORT STOCKTON  CLOUDY    80  56  43 SE12      30.15F
GUADALUPE PASS LGT RAIN  63  62  97 NE21      30.37R FOG
MARFA          PTSUNNY   75  57  53 E14       30.25F
PECOS          MOCLDY    81  60  49 SE13      30.12F
$$

DALLAS/FORT WORTH METROPLEX

CITY           SKY/WX    TMP DP  RH WIND       PRES   REMARKS
DFW AIRPORT    MOSUNNY   87  46  24 N8        30.11F
FTW MEACHAM    SUNNY     87  47  24 E9        30.11F
DAL-EXECUTIVE  SUNNY     89  46  22 NE9       30.10F
GRAND PRAIRIE  SUNNY     86  46  25 MISG      30.12F
ADDISON        SUNNY     86  45  23 N9        30.12F
MESQUITE       CLEAR     86  43  22 NE7       30.11F
LANCASTER      CLEAR     86  44  23 NE8       30.11F
$$

NORTH CENTRAL TEXAS

CITY           SKY/WX    TMP DP  RH WIND       PRES   REMARKS
SHRMAN/DENISON CLEAR     81  51  35 NE7       30.16F
GAINESVILLE    SUNNY     80  51  37 NE8       30.17F
BRIDGEPORT     CLEAR     85  45  24 NE7       30.15F
DENTON         SUNNY     85  47  26 N10       30.12F
WAXAHACHIE     CLEAR     87  43  21 NE6       30.12S
GRANBURY       CLEAR     89  54  30 NE7       30.11F
$$

WESTERN NORTH TEXAS

CITY           SKY/WX    TMP DP  RH WIND       PRES   REMARKS
WICHITA FALLS  SUNNY     84  48  28 E13       30.14F
VERNON         CLEAR     85  46  25 E9        30.16F
BRECKENRIDGE   MOCLDY    89  57  33 NE7       30.11F
COMANCHE       MOSUNNY   87  62  42 E7        30.12S
$$

CENTRAL AND SOUTH CENTRAL TEXAS

CITY           SKY/WX    TMP DP  RH WIND       PRES   REMARKS
AUSTIN/BERGSTM PTSUNNY   91  68  46 NE13      30.03F
WACO           SUNNY     89  60  37 NE6       30.07F
HILLSBORO      CLEAR     89  54  30 NE8       30.10S
TEMPLE         MOSUNNY   86  64  48 NE12      30.06F
KILLEEN-GRAY   MOSUNNY   88  66  48 NE12      30.08F
FORT HOOD      MOSUNNY   91  67  44 N10G21    30.07F
GEORGETOWN     MOSUNNY   90  66  45 NE9       30.06F
LAGO VISTA     FAIR      90  66  44 N8        30.08F
SAN MARCOS     SUNNY     91  64  40 NE12G17   30.04F
NEW BRAUNFELS  MOSUNNY   92  64  39 E13       30.02F
RANDOLPH AFB   PTSUNNY   92  63  38 NE12      30.04F
SAN ANTONIO    CLOUDY    93  63  36 N12       30.04F
STINSON        MOSUNNY   93  63  36 NE9G22    30.01F
PLEASANTON     NOT AVBL
LA GRANGE      MOSUNNY   87  72  59 N14       30.01S
GIDDINGS       CLEAR     87  67  51 NE5       30.07F
$$

EAST TEXAS

CITY           SKY/WX    TMP DP  RH WIND       PRES   REMARKS
PARIS          SUNNY     79  52  38 N8        30.15F
CLARKSVILLE    NOT AVBL
TYLER          SUNNY     85  53  33 N10       30.10F
LONGVIEW       SUNNY     86  50  28 NE10      30.09F
PALESTINE      CLEAR     86  58  38 NE8       30.09F
NACOGDOCHES    SUNNY     86  55  35 NE6       30.08S
$$

TEXAS HILL COUNTRY AND EDWARDS PLATEAU

CITY           SKY/WX    TMP DP  RH WIND       PRES   REMARKS
LLANO          PTCLDY    90  66  45 NE7       30.11S
HORSESHOE BAY  MOCLDY    88  62  41 E6        30.08S
KERRVILLE      MOSUNNY   86  63  45 E7        30.10F
FREDERICKSBRG  MOSUNNY   85  62  45 E6        30.11S
ROCKSPRINGS    PTCLDY    88  57  35 SE7       30.14F
HONDO          SUNNY     94  59  31 E8        30.05F
UVALDE         PTCLDY    93  62  34 SE7       30.05S
DEL RIO        SUNNY     90  60  36 MISG      30.04F
$$

SOUTHEAST TEXAS

CITY           SKY/WX    TMP DP  RH WIND       PRES   REMARKS
COLLEGE STN    SUNNY     89  69  51 N14       30.04F
CALDWELL       PTCLDY    84  72  65 NE5       30.07F
CROCKETT       CLEAR     88  64  45 N7        30.09F
BRENHAM        SUNNY     91  69  47 N8        30.04S
HUNTSVILLE     SUNNY     88  65  46 E6        30.05F
CONROE         SUNNY     88  68  51 N8        30.04S
HOUSTON BUSH   MOSUNNY   89  73  59 NE13      30.01S
HOUSTON HOBBY  MOSUNNY   92  70  48 NE17G23   29.98F
PERLAND        MOSUNNY   92  69  47 NE8       30.00F
WHARTON        MOCLDY    91  67  45 N9        30.00F
$$

THE UPPER TEXAS COAST

CITY           SKY/WX    TMP DP  RH WIND       PRES   REMARKS
ORANGE         CLEAR     85  69  57 N10       30.02S
PORT ARTHUR    SUNNY     88  70  55 N14       30.00S
GALVESTON      MOSUNNY   89  75  63 N13       29.99F
ANGLETON       MOSUNNY   90  70  51 E7        29.99F
BAY CITY       PTCLDY    92  72  51 E7        29.99F
$$

TEXAS COASTAL BEND, RIO GRANDE PLAINS DEEP SOUTH TEXAS

CITY           SKY/WX    TMP DP  RH WIND       PRES   REMARKS
VICTORIA       MOSUNNY   93  70  46 NE10      29.99F
BEEVILLE       FAIR      92  60  34 E10G20    29.99F
ROCKPORT       MOSUNNY   89  70  53 E10       29.99F
PORT ARANSAS   MOCLDY    86  71  60 E9        30.00S
PORT LAVACA    MOCLDY    85  70  59 N3        29.99S
CORPUS CHRISTI PTSUNNY   89  67  47 E16G22    30.00S
KINGSVILLE NAS PTSUNNY   90  68  48 E14       30.00S
COTULLA        MOSUNNY   93  63  36 E9        30.00F
LAREDO         MOSUNNY   92  62  36 E14G20    30.03S
BROWNSVILLE    PTSUNNY   86  76  71 E10       29.97S
PORT ISABEL    NOT AVBL
HEBBRONVILLE     N/A     90  59  35 E14       30.03S
MCALLEN        MOSUNNY   88  70  55 E17G23    29.97F
WESLACO        MOSUNNY   88  70  55 NE17G23   29.97S
FALFURRIAS     CLEAR    N/A N/A N/A E15       29.99S
EDINBURG       PTCLDY    90  68  49 NE12      29.99S
$$


USA.gov is the U.S. government's official web portal to all federal, state and local government web resources and services.